Regional Weather Roundup
Issued by NWS Cleveland, OH

Home | Current Version | Previous Version | Text Only | Print | Product List | Glossary Off
Versions: 1 2 3 4 5 6 7 8 9 10 11 12 13 14 15 16 17 18 19 20 21 22 23 24 25 26 27 28 29 30 31 32 33 34 35 36 37 38 39 40 41 42 43 44 45 46 47 48 49 50

000
ASUS41 KCLE 040700
RWRCLE
OHIO REGIONAL WEATHER ROUNDUP
NATIONAL WEATHER SERVICE WILMINGTON, OH
300 AM EDT SAT JUL 04 2015

NOTE: "FAIR" INDICATES FEW OR NO CLOUDS BELOW 12,000 FEET WITH NO
SIGNIFICANT WEATHER AND/OR OBSTRUCTIONS TO VISIBILITY.

OHZ001>008-015>018-024>027-034-035-043-044-040800-
   NORTHWEST OHIO

CITY           SKY/WX    TMP DP  RH WIND       PRES   REMARKS
DEFIANCE       CLEAR     56  53  90 CALM      29.95R
FINDLAY        CLEAR     57  52  83 CALM      29.92F
TOLEDO EXPRESS CLEAR     56  51  84 CALM      29.94R
TOLEDO EXEC    CLEAR     57  52  83 NW3       29.94S
LIMA           CLEAR     58  54  86 SE3       29.94S
$$

OHZ009>014-019>023-028>033-038-089-040800-
   NORTHEAST OHIO

CITY           SKY/WX    TMP DP  RH WIND       PRES   REMARKS
CLE-HOPKINS    CLEAR     59  53  80 CALM      29.92F
CLE-LAKEFRONT  CLEAR     65  52  62 CALM      29.90S
CUY CO. ARPT   NOT AVBL
LORAIN-ELYRIA  CLEAR     57  54  89 N3        29.92S
ASHTABULA      PTCLDY    57  54  89 CALM      29.91S
AKRON-CANTON   MOCLDY    62  54  74 N3        29.89F
WOOSTER        NOT AVBL
MANSFIELD      PTCLDY    56  55  97 NW6       29.93R
YOUNGSTOWN     CLOUDY    64  57  78 NE5       29.88F
$$

OHZ042-051>053-060>062-070>072-077>081-040800-
  SOUTHWEST OHIO

CITY           SKY/WX    TMP DP  RH WIND       PRES   REMARKS
CINC-COVINGTON CLOUDY    68  64  87 N6        29.92S FOG
CINC-LUNKEN    CLOUDY    67  65  93 CALM      29.91S
HAMILTON       PTCLDY    65  64  97 CALM      29.93R FOG
DAYTON         NOT AVBL
WRIGHT-PAT AFB CLEAR     64  62  94 SE2       29.92S
DAYTON GENERAL PTCLDY    63  62  97 CALM      29.92R FOG
WILMINGTON     MOCLDY    64  62  93 NW5       29.92R FOG
$$

OHZ036-037-039>041-045>050-054>059-063>069-073>076-082>088-040800-
  CENTRAL AND SOUTHEAST OHIO

CITY           SKY/WX    TMP DP  RH WIND       PRES   REMARKS
COLUMBUS       CLOUDY    64  61  90 N6        29.90R
OSU AIRPORT    MOCLDY    62  58  86 N7        29.91S
BOLTON FIELD   NOT AVBL
RICKENBACK AFB NOT AVBL
NEWARK         MOCLDY    63  61  93 CALM      29.89S
MARION         CLEAR     58  54  86 N5        29.93R
LANCASTER      FOG       61  59  93 CALM      29.90S VSB 3/4
ZANESVILLE     FOG       62  60  93 SW5       29.88R VSB 3/4
NEW PHILLY     PTCLDY    63  62  97 CALM      29.89R FOG
$$


USA.gov is the U.S. government's official web portal to all federal, state and local government web resources and services.